Tracking 19476 objects as of 17-Jan-2019
HD Live streaming from Space Station
objects crossing your sky now

FAST

Track FAST now!
10-day predictions
FAST is classified as:


NORAD ID: 24285
Int'l Code: 1996-049A
Perigee: 353.5 km
Apogee: 3,449.8 km
Inclination: 83.0 °
Period: 124.8 minutes
Semi major axis: 8272 km
RCS: 1.3393 m2 (large)
Launch date: August 21, 1996
Source: United States (US)
Launch site: AIR FORCE WESTERN TEST RANGE (AFWTR)

Designed to study Earth's aurora.
aabbcc
Your satellite tracking list
Your tracking list is empty




NASA's NSSDC Master Catalog

Two Line Element Set (TLE):
1 24285U 96049A   19017.43131969  .00000857  00000-0  68011-4 0  9993
2 24285  82.9583  54.6286 1871416 188.5614 167.8777 11.53814902917666
Source of the keplerian elements: AFSPC